COSMOS 2251 DEB, 36439

Orbit data source: Space-Track

COSMOS 2251 DEB, 36439 is space debris in LEO originally from a launch on Wed, 16 Jun 1993 UTC launched from the Plesetsk Missile And Space Complex (PKMTR). The debris from Iridium 33, an American commercial communications satellite, has been tracked extensively since its accidental collision with the defunct Russian satellite Cosmos 2251 in 2009. This event, occurring at high speed in low Earth orbit (LEO), generated thousands of pieces of space debris, significantly increasing the risk of further collisions. The Iridium 33 debris cloud has impacted space traffic management and orbital debris mitigation strategies, making it a subject of ongoing study in space situational awareness.

Loading next visibility...
Identifier
36439, 1993-036BAN
Orbit
LEO
Country
Flag of CISCIS
Related business
Manufacturer
Unknown
Mission
Spacecraft
Bus & Motor
Unknown
Mass
Unknown
Launch date (UTC)
1993-06-16 (33 years ago)
Launch vehicle
Unknown
Launch site
Plesetsk Missile And Space Complex (PKMTR)
Object type
Payload
Rocket body
Debris
Shape & HBR
Unknown shape, 0.1 m
Radar Cross Section
Small (<0.1 m²)

Expand to show TLE details & history
Last TLE update: 2 days ago

TLE from 2 days ago
0 COSMOS 2251 DEB
1 36439U 93036BAN 26263.86655154  .00000911  00000-0  85292-3 0  9995
2 36439  73.9692 306.1664 0428346 224.2697 132.3402 13.48556575624150
Epoch: 2026-09-20T20:47Z
TLE epoch observation values (Epoch: 2026-09-20T20:47:50.053Z)
Latitude
-0.00003°
Longitude
-5.54675°
Altitude
1,302.365 km
Speed
7.097 km/s
True Right ascension
20h 24m 39s
True Declination
0° 00' 00"
Sunlit
Object was in full shadow at epoch
Visualization orbit readout
Latitude
Unknown
Longitude
Unknown
Altitude
Unknown
Speed
Unknown
Apparent Right ascension
Unknown
Apparent Declination
Unknown
Sunlit
N/A
Visualization observer readout
Local Sidereal Time
02:37:16
Azimuth
Unknown
Elevation
Unknown
Doppler factor
Unknown
Orbital elements
Apogee altitude
1,394.56 km
Perigee altitude
756.03 km
Semi-major axis
7,453.432 km
Eccentricity
0.04283
Inclination
73.9692°
RAAN
306.1664°
Arg. of periapsis
224.2697°
True anomaly
135.83973°
Mean anomaly
132.3402°
Eccentric anomaly
134.10258°
Mean motion
3.37294 °/min
Orbital period
106.73 mins
BSTAR
0.00085292

Documentation

Showing up to 5 results
|